Location: Tierra del Sol
(32.6128°N, 116.3319°W)
Time: 18:15:07
(UTC-07:00)

Tiangong 1 - Pass Details

Date: 13 October 2017
Orbit: 292 x 320 km, 42.8° (Epoch: 21 October)

Event Time Altitude Azimuth Distance (km) Brightness Sun altitude
Rises 19:56:46 0° 308° (NW) 2,033 5.6 -22.3°
Reaches altitude 10° 19:58:54 10° 320° (NW) 1,197 4.1 -22.8°
Enters shadow 19:59:23 13° 326° (NW) 1,024 3.7 -22.9°
